LEMD Weather Reports


Display with metric or nautical units.
time (UTC)temp
F
wind
direction
speed
MPH
gust
MPH
rain 1hr
in
rain 24hr
in
rain mn
in
humidity
%
barometer
mb
20260905083003 77 0 2.0 0.0 0.00 0.00 0.00 31 1023.0
20260905081504 77 0 2.0 0.0 0.00 0.00 0.00 31 1023.0
20260905080003 75 0 2.0 0.0 0.00 0.00 0.00 33 1023.0
20260905071503 73 340 2.0 0.0 0.00 0.00 0.00 33 1022.0
20260905070003 72 360 3.0 0.0 0.00 0.00 0.00 35 1022.0
20260905063004 73 330 3.0 0.0 0.00 0.00 0.00 33 1022.0
20260905053004 75 310 8.0 0.0 0.00 0.00 0.00 29 1022.0
20260905043003 75 350 5.0 0.0 0.00 0.00 0.00 29 1021.0
20260905041503 75 350 5.0 0.0 0.00 0.00 0.00 29 1021.0
20260905033003 77 330 3.0 0.0 0.00 0.00 0.00 27 1022.0
20260905031503 77 330 3.0 0.0 0.00 0.00 0.00 27 1022.0
20260905024503 77 340 3.0 0.0 0.00 0.00 0.00 27 1022.0
20260905021503 79 360 5.0 0.0 0.00 0.00 0.00 25 1022.0
20260905020003 77 350 3.0 0.0 0.00 0.00 0.00 27 1022.0
20260905014504 77 350 3.0 0.0 0.00 0.00 0.00 27 1022.0
20260905011503 79 360 5.0 0.0 0.00 0.00 0.00 25 1022.0
20260905010004 79 330 6.0 0.0 0.00 0.00 0.00 24 1022.0
20260905003003 79 320 3.0 0.0 0.00 0.00 0.00 24 1022.0
20260905001503 79 320 3.0 0.0 0.00 0.00 0.00 24 1022.0
20260904231503 81 30 3.0 0.0 0.00 0.00 0.00 26 1022.0
20260904223003 84 360 3.0 0.0 0.00 0.00 0.00 20 1022.0
20260904220005 86 340 7.0 0.0 0.00 0.00 0.00 19 1022.0
20260904210003 88 350 3.0 0.0 0.00 0.00 0.00 18 1021.0
20260904203003 88 0 2.0 0.0 0.00 0.00 0.00 18 1021.0
20260904201503 88 0 2.0 0.0 0.00 0.00 0.00 18 1021.0
20260904193004 95 210 3.0 0.0 0.00 0.00 0.00 12 1021.0
20260904191503 95 210 3.0 0.0 0.00 0.00 0.00 12 1021.0
20260904190004 99 240 5.0 0.0 0.00 0.00 0.00 10 1021.0
20260904184503 99 240 5.0 0.0 0.00 0.00 0.00 10 1021.0
20260904180004 100 200 6.0 0.0 0.00 0.00 0.00 1021.0
20260904174503 100 200 6.0 0.0 0.00 0.00 0.00 1021.0
20260904173003 100 230 6.0 0.0 0.00 0.00 0.00 1021.0
20260904171503 100 230 6.0 0.0 0.00 0.00 0.00 1021.0
20260904163003 100 190 7.0 0.0 0.00 0.00 0.00 11 1021.0
20260904161504 100 190 7.0 0.0 0.00 0.00 0.00 11 1021.0
20260904160004 100 230 6.0 0.0 0.00 0.00 0.00 11 1021.0
20260904154502 100 230 6.0 0.0 0.00 0.00 0.00 11 1021.0
20260904151503 100 210 5.0 0.0 0.00 0.00 0.00 1022.0
20260904144503 100 220 6.0 0.0 0.00 0.00 0.00 10 1022.0
20260904141503 100 210 6.0 0.0 0.00 0.00 0.00 11 1022.0
20260904140003 99 180 6.0 0.0 0.00 0.00 0.00 11 1023.0
20260904134502 99 180 6.0 0.0 0.00 0.00 0.00 11 1023.0
20260904133004 97 190 3.0 0.0 0.00 0.00 0.00 11 1023.0
20260904131503 97 190 3.0 0.0 0.00 0.00 0.00 11 1023.0
20260904130003 97 190 3.0 0.0 0.00 0.00 0.00 11 1023.0
20260904123003 95 0 2.0 0.0 0.00 0.00 0.00 12 1024.0
20260904121503 95 0 2.0 0.0 0.00 0.00 0.00 12 1024.0
20260904120004 93 220 3.0 0.0 0.00 0.00 0.00 12 1024.0
20260904113003 90 200 1.0 0.0 0.00 0.00 0.00 13 1025.0
20260904111503 90 200 1.0 0.0 0.00 0.00 0.00 13 1025.0
20260904110004 86 180 2.0 0.0 0.00 0.00 0.00 16 1025.0
20260904103003 84 0 2.0 0.0 0.00 0.00 0.00 18 1025.0
20260904101502 84 0 2.0 0.0 0.00 0.00 0.00 18 1025.0
20260904094503 81 260 2.0 0.0 0.00 0.00 0.00 21 1024.0
20260904091503 75 360 1.0 0.0 0.00 0.00 0.00 25 1024.0